CAPE
2633 2621 2636 2408 2266 1974 1836 1892 2142 1804 1742 1559 1355 1298 1210 853 659 711 817 827 674 555
2269 2236 2034 1993 1852 1415 1296 1455 1900 1726 1550 1313 1187 1125 928 535 730 724 788 786 824 929
1898 1816 1857 1716 1227 1257 1452 1342 1601 1523 1248 1214 940 785 737 530 633 660 872 645 585 794
1479 1271 1261 1291 1388 1523 1485 1386 1185 1060 926 784 724 632 694 622 610 740 783 358 85 611
1181 1225 1363 1292 1273 1271 1123 836 684 547 472 460 384 704 834 752 482 640 693 69 48 193
1167 1176 1199 1109 965 682 520 404 340 348 392 416 519 656 748 628 542 557 430 48 32 54
962 837 755 745 571 470 418 371 427 470 477 574 583 526 505 455 459 212 68 26 10 18
475 596 722 608 558 557 359 377 453 578 574 612 531 238 443 402 538 417 7 39 32 54
523 624 759 712 644 446 438 560 552 567 580 605 3 0 0 5 613 233 23 40 83 88
560 623 667 585 464 391 600 718 642 595 556 365 269 0 0 10 525 411 39 22 50 2
467 450 479 497 500 541 651 606 684 659 462 390 0 0 0 23 325 294 166 28 40 20
334 455 340 416 503 622 596 738 788 567 408 438 7 9 0 98 273 251 167 34 16 12
271 451 337 493 583 603 689 752 558 424 338 4 2 0 0 16 93 195 68 9 6 15
360 572 627 674 622 652 436 592 554 411 78 13 74 3 3 1 121 91 9 8 6 14
CIN
-86 -49 -35 -26 -31 -19 -2 0 0 0 0 0 0 0 0 0 0 0 0 0 0 0
-64 -48 -56 -46 -24 -34 -17 -1 0 0 0 0 0 0 0 0 0 0 0 0 0 0
-78 -75 -46 -33 -51 -16 0 0 0 0 0 0 0 0 0 0 0 0 0 0 0 0
-102 -95 -70 -34 -5 0 0 0 0 0 0 0 0 0 0 0 0 0 0 0 -27 0
-98 -61 -23 -8 0 0 0 0 0 0 0 0 0 0 0 0 0 0 0 -17 -23 -16
-63 -37 -15 -1 0 -2 -6 -8 -2 0 0 0 0 0 0 0 0 0 0 -22 -25 -6
-59 -45 -29 -14 -12 -8 -12 -1 0 0 0 0 0 0 0 0 0 -16 -14 -41 -6 -18
-98 -49 -13 -4 -1 0 -6 -1 0 0 0 0 0 -2 0 0 0 0 -8 -3 -2 -2
-48 -14 0 0 0 0 0 0 0 0 0 0 0 0 0 -9 0 0 -17 0 0 0
-12 0 0 0 0 0 0 0 0 0 0 0 0 0 0 -24 0 0 -16 -2 0 -1
-4 0 0 0 0 0 0 0 0 0 0 0 0 0 0 -16 -1 -3 0 -6 -1 -1
-5 0 0 0 0 0 0 0 0 0 0 0 -1 -2 0 -1 0 0 0 0 -2 -2
-1 0 -2 0 0 0 0 0 0 0 0 -2 0 0 0 -6 -1 0 -5 -1 -1 -2
0 0 0 0 0 0 0 0 0 0 -4 -4 -3 -2 -4 -8 -1 -1 -7 -9 -3 0
Wind_Speed
42 39 37 32 32 31 30 30 34 31 33 32 28 26 21 21 16 23 24 19 16 17
37 35 33 32 30 30 31 32 32 33 32 28 25 22 21 15 16 23 20 17 14 13
32 30 30 30 31 31 31 33 33 31 27 24 23 20 18 18 17 21 19 17 15 12
28 29 29 30 31 30 32 31 28 26 23 22 21 17 17 15 18 18 20 21 nan 6
27 28 29 30 29 30 28 24 26 24 21 20 15 15 15 13 15 18 22 nan nan 9
26 27 28 27 28 24 23 24 24 21 16 13 12 12 11 9 15 18 19 nan nan nan
25 26 25 26 24 23 22 22 21 17 14 11 10 11 8 12 17 17 nan nan nan nan
25 24 26 26 24 24 22 21 22 17 15 13 9 8 6 11 17 19 nan nan nan nan
22 23 24 25 24 23 21 19 20 18 15 13 nan nan nan nan 12 18 nan nan nan nan
20 20 21 21 21 19 17 17 20 16 13 13 16 nan nan nan 7 14 nan nan nan nan
17 18 18 18 17 16 15 16 15 14 12 11 nan nan nan nan 10 11 13 nan nan nan
17 17 16 15 14 14 13 12 15 13 12 13 nan nan nan nan 7 11 10 nan nan nan
15 15 14 13 13 12 12 12 14 13 15 nan nan nan nan nan nan 9 nan nan nan nan
13 12 13 12 12 13 13 14 14 15 nan nan nan nan nan nan 3 nan nan nan nan nan
Wind_Direction
288 287 283 284 285 287 293 294 299 300 303 303 305 302 297 300 314 327 324 325 318 290
284 283 276 280 285 286 285 287 298 301 302 304 300 297 295 301 326 329 325 319 322 318
276 272 276 280 282 283 285 294 299 302 302 302 299 301 305 299 318 331 318 309 304 308
271 275 278 280 279 285 293 297 303 305 304 303 305 302 305 300 310 317 314 300 nan 289
272 274 279 279 283 291 293 300 304 305 304 304 302 306 310 317 319 323 313 nan nan 250
271 275 279 282 289 289 295 300 303 305 304 301 310 312 321 317 323 320 311 nan nan nan
270 275 282 289 289 293 294 297 306 308 298 301 309 311 312 306 315 301 nan nan nan nan
275 283 290 293 292 289 288 296 299 306 297 282 287 279 276 308 314 313 nan nan nan nan
279 288 294 295 294 291 283 285 292 300 291 273 nan nan nan nan 307 316 nan nan nan nan
281 293 298 303 304 300 285 275 281 294 287 271 256 nan nan nan 328 319 nan nan nan nan
290 296 299 309 305 295 278 271 279 292 291 261 nan nan nan nan 321 346 324 nan nan nan
288 300 306 314 308 288 277 267 277 294 288 247 nan nan nan nan 322 323 308 nan nan nan
289 305 313 307 312 297 275 269 277 286 261 nan nan nan nan nan nan 309 nan nan nan nan
291 300 298 310 307 313 306 273 273 274 nan nan nan nan nan nan 338 nan nan nan nan nan